Regional Weather Roundup
Issued by NWS

Home | Current Version | Previous Version | Graphics & Text | Print | Product List | Glossary On
Versions: 1 2 3 4 5 6 7 8 9 10 11 12 13 14 15 16 17 18 19 20 21 22 23 24 25 26 27 28 29 30 31 32 33 34 35 36 37 38 39 40 41 42 43 44 45 46 47 48 49 50
000
ASUS43 KLMK 192010
RWRKY
KENTUCKY REGIONAL WEATHER ROUNDUP
NATIONAL WEATHER SERVICE LOUISVILLE KY
300 PM EST FRI JAN 19 2018

NOTE "FAIR" INDICATES FEW OR NO CLOUDS BELOW 12,000 FEET
WITH NO SIGNIFICANT WEATHER AND/OR OBSTRUCTIONS TO VISIBILITY.

KYZ001>023-026-027-061>063-070>075-192100-
WESTERN AND SOUTH CENTRAL KENTUCKY

CITY           SKY/WX    TMP DP  RH WIND       PRES   REMARKS
PADUCAH        FAIR      40  17  39 S10G17    30.13F WCI  33
HENDERSON      FAIR      38  21  50 S15       30.11F WCI  29
OWENSBORO      FAIR      38  23  55 S13       30.13F WCI  30
HOPKINSVILLE   FAIR      43  18  37 SW13      30.16F
BOWLING GREEN  FAIR      40  20  44 S13       30.19F WCI  32
GLASGOW        FAIR      42  17  36 SW9       30.18F
$$

KYZ024-025-028>034-038-045-046-053-192100-
NORTH CENTRAL KENTUCKY

CITY           SKY/WX    TMP DP  RH WIND       PRES   REMARKS
LOUISVILLE/SDF PTSUNNY   42  20  41 SW16G22   30.11F
LOUISVILLE/LOU FAIR      41  20  43 SW15      30.12F
FORT KNOX      MOSUNNY   39  19  45 S14       30.14F WCI  31
$$

KYZ035>037-039>044-047>052-055>060-089>105-192100-
NORTHEAST KENTUCKY

CITY           SKY/WX    TMP DP  RH WIND       PRES   REMARKS
LEXINGTON      FAIR      38  18  44 S16       30.13F WCI  29
COVINGTON      FAIR      37  20  50 S10G21    30.06F WCI  30
FRANKFORT      FAIR      39  17  41 SW10      30.11F WCI  32
$$

KYZ054-064>069-076>088-106>120-192100-
SOUTHEAST KENTUCKY

CITY           SKY/WX    TMP DP  RH WIND       PRES   REMARKS
JACKSON        FAIR      43  13  29 S8        30.13F
LONDON         FAIR      43   8  23 SW10      30.17F
SOMERSET       FAIR      41  14  33 W13       30.20F
MIDDLESBORO    FAIR      42  15  33 S8        30.21F
MONTICELLO     FAIR      43  18  36 W16       30.20F
$$





USA.gov is the U.S. government's official web portal to all federal, state and local government web resources and services.